Temp
15 16 15 16 17 18 17 18 18 18 18 18 16 15 16 16 15 14 15 14 14 14 17 18 20 20 19 18 18 18 18 17 16 16 15 15 15 14 15 14 15 15 15 14
15 14 15 15 16 18 17 17 18 18 17 17 16 15 15 15 15 16 17 16 15 15 14 15 19 20 19 20 19 18 18 17 17 15 15 15 15 15 15 15 15 14 14 15
14 17 14 16 15 16 16 16 17 18 17 16 14 14 16 16 15 15 14 14 14 14 14 13 15 18 19 18 18 18 18 18 18 16 15 15 15 15 15 15 14 15 14 15
16 15 14 15 15 15 15 15 16 18 16 15 15 14 14 17 15 15 15 15 14 13 12 11 13 15 17 18 18 18 17 17 17 16 15 15 15 15 14 15 15 15 15 14
15 14 14 15 16 15 16 14 15 16 14 15 14 14 14 14 17 17 18 16 15 13 10 11 11 13 15 16 17 18 17 16 16 16 15 15 15 15 15 14 15 14 14 14
15 14 15 15 14 15 12 14 12 11 12 13 13 15 14 15 16 18 19 17 13 11 10 9 11 12 13 14 15 15 15 15 15 14 14 14 14 15 15 14 14 14 14 13
15 15 15 14 13 14 14 14 13 14 12 14 11 13 16 16 15 15 16 14 12 11 10 9 8 9 11 12 13 13 13 12 12 13 14 13 13 13 14 14 14 13 13 13
13 14 13 13 14 13 13 14 13 13 12 14 11 13 15 14 15 13 14 11 11 12 10 10 8 9 10 11 11 12 12 12 12 13 13 13 14 13 13 13 13 13 13 13
13 15 14 14 14 15 14 14 15 11 2 9 12 12 14 15 15 15 13 12 11 12 11 10 9 9 10 11 11 12 11 11 11 12 11 12 12 12 13 13 12 12 11 11
14 15 13 14 15 15 15 14 14 11 10 11 13 13 16 19 18 15 13 11 10 11 11 9 8 9 10 10 11 11 11 11 11 11 11 11 12 12 12 12 12 11 11 11
14 15 12 13 13 13 14 14 14 14 12 13 11 14 12 15 15 13 13 13 12 11 9 8 7 8 9 9 10 10 11 11 11 11 11 11 11 11 11 11 11 11 10 10
14 13 11 12 12 12 14 14 13 13 12 10 10 17 12 12 11 11 13 14 12 11 9 7 7 8 8 9 9 10 10 11 11 11 11 11 11 11 11 11 11 10 10 9
13 11 10 12 12 11 12 12 14 12 11 10 11 17 10 11 11 12 13 12 10 11 10 7 7 7 8 8 9 10 10 11 11 11 11 11 11 11 10 10 10 9 9 9
13 9 12 14 13 11 11 11 13 15 12 14 14 15 12 11 11 12 12 11 11 10 9 8 7 7 8 8 9 9 9 10 10 11 11 11 11 10 10 9 9 9 8 8
12 9 10 11 9 9 10 9 12 14 15 14 17 14 11 11 10 9 10 11 9 9 8 7 6 6 7 7 8 8 9 10 10 10 10 10 10 10 10 10 9 8 7 6
10 10 10 12 11 10 10 11 9 11 13 15 15 13 12 13 9 9 10 9 8 7 7 7 6 6 6 6 6 7 8 9 10 10 9 8 9 9 9 9 8 7 7 7
9 9 10 11 10 9 10 11 11 11 12 13 13 15 12 11 10 9 8 8 7 7 7 6 5 5 5 5 6 6 7 7 9 9 8 8 8 8 7 7 6 6 6 5
8 9 9 9 10 11 12 10 12 12 12 10 10 11 10 11 8 7 7 6 6 6 6 5 5 5 6 6 6 7 8 9 9 8 8 7 7 6 6 6 6 5 5 4
9 9 9 10 10 9 12 8 9 10 11 12 11 9 8 6 7 7 6 6 6 6 5 5 6 6 6 6 6 7 7 7 6 6 6 6 6 6 6 6 5 5 4 4
7 8 10 7 9 8 8 8 8 9 10 7 10 8 6 6 8 6 5 5 4 5 5 5 6 6 6 6 6 6 6 6 6 5 5 5 5 5 5 4 4 4 3 3
9 9 10 8 7 5 7 8 8 9 10 6 8 8 6 5 6 4 3 4 5 5 5 5 5 4 4 4 5 4 4 4 3 4 4 4 4 4 4 4 3 2 2 1
9 9 8 6 7 10 6 7 9 8 5 6 5 5 5 3 3 2 2 2 3 3 3 3 3 3 3 3 3 2 2 2 2 3 4 4 3 3 3 2 2 1 1 0
7 7 7 7 8 5 3 5 6 4 4 5 4 3 4 3 3 3 2 1 1 1 1 1 2 2 1 1 1 1 -0 1 2 3 3 2 2 2 2 1 1 0 -1 -1
2 3 4 6 6 6 5 5 5 4 5 3 2 2 3 3 2 2 1 0 -0 -0 -1 -1 0 -0 -1 -2 -2 -2 -1 0 1 1 1 1 0 0 -0 -1 -1 -1 -1 -2
4 3 2 2 4 5 5 4 4 3 2 2 2 3 2 1 -0 0 -1 -2 -2 -3 -4 -4 -3 -4 -4 -3 -3 -3 -2 -2 -1 -1 -0 -0 -1 -1 -1 -2 -2 -2 -2 -3
2 3 5 5 5 6 6 3 2 2 2 1 1 1 -1 1 -0 -2 -3 -3 -5 -6 -6 -6 -6 -6 -5 -5 -5 -5 -5 -5 -4 -4 -4 -4 -3 -2 -2 -3 -2 -3 -3 -4
Height
801 808 815 812 808 811 816 821 821 820 818 818 822 824 807 805 806 804 801 801 798 795 783 787 789 791 794 797 801 803 808 811 817 824 828 832 833 836 839 842 845 848 852 855
808 813 807 807 811 811 817 822 823 820 818 818 823 821 810 805 800 793 791 792 791 787 782 782 784 784 785 786 789 794 798 803 808 814 819 825 829 831 834 837 840 843 846 848
804 797 802 804 813 816 819 825 824 825 822 822 828 823 809 797 795 790 787 785 784 782 780 778 776 776 777 778 781 784 789 794 799 805 815 819 824 827 830 832 835 836 839 841
798 797 804 805 810 814 825 819 818 819 827 839 831 841 816 797 797 790 783 780 779 781 778 773 772 771 772 772 775 778 783 787 792 799 806 811 814 818 821 823 827 830 832 834
797 801 804 805 803 808 813 817 819 821 835 835 837 844 815 806 797 787 775 778 777 778 778 772 772 770 769 769 770 774 778 781 786 791 798 804 809 813 816 819 822 825 827 829
792 794 794 795 802 802 815 821 831 842 843 846 836 831 818 804 792 781 774 775 778 779 777 774 772 770 768 767 767 770 773 778 783 788 794 799 804 808 812 815 818 820 822 825
793 793 792 792 806 809 810 821 846 847 854 840 840 833 795 787 783 784 779 779 778 777 776 776 775 772 770 769 768 770 772 776 781 786 791 795 800 804 808 812 814 816 818 820
798 803 794 790 792 806 814 814 834 849 853 833 840 827 796 782 780 782 779 782 779 777 777 777 776 774 772 773 774 774 775 777 781 785 789 794 798 801 805 808 811 812 815 817
792 788 784 785 785 788 811 814 804 838 898 860 829 810 788 774 776 777 780 782 783 780 779 779 777 776 776 775 776 777 778 779 783 787 791 794 798 801 804 806 809 811 813 815
771 782 788 785 782 786 790 793 817 834 852 850 818 812 790 767 771 776 780 781 780 777 777 777 777 778 777 777 777 780 779 780 782 786 789 792 796 800 802 805 807 809 810 811
766 769 792 786 787 789 795 797 800 805 815 818 832 798 780 772 773 779 777 776 776 777 779 780 780 781 780 780 780 781 781 782 784 786 789 791 795 798 800 802 805 807 808 808
757 771 794 787 782 784 779 780 787 802 812 824 820 771 772 772 777 777 775 775 775 777 779 780 780 781 780 780 782 783 783 782 784 788 790 791 793 796 798 797 800 803 803 804
755 780 794 786 789 790 786 783 780 791 804 813 820 762 783 780 779 775 773 776 779 778 779 781 781 779 780 782 783 784 784 784 785 788 791 791 792 795 798 796 797 798 798 800
748 775 767 761 766 774 783 782 775 775 798 779 779 767 781 782 781 777 776 777 777 779 781 783 782 783 782 783 783 782 783 784 786 787 789 791 792 793 794 793 794 795 796 796
754 772 771 769 777 779 778 784 774 772 763 781 743 768 776 773 775 777 774 775 779 781 783 784 785 786 787 787 786 784 784 784 786 786 788 790 787 789 790 790 791 791 792 794
759 764 766 757 765 775 775 770 782 775 765 761 761 759 760 761 771 774 773 777 781 783 784 784 786 787 788 788 787 784 783 784 785 786 785 787 785 785 785 786 789 789 788 789
760 768 765 757 766 775 776 755 763 768 763 759 761 736 757 765 770 772 776 779 781 782 784 786 785 788 790 790 788 786 785 786 785 785 786 788 785 783 784 784 786 786 786 786
761 762 764 768 768 755 734 745 742 749 747 758 756 755 760 758 768 772 775 779 783 784 786 788 787 788 789 790 790 789 786 785 786 788 788 785 784 785 782 783 783 782 781 783
752 759 761 760 759 758 734 752 754 753 739 737 744 756 763 769 769 774 775 776 779 782 784 786 786 787 787 788 790 789 788 789 789 789 787 785 783 782 781 780 779 778 778 778
757 753 752 776 764 769 748 744 744 745 742 738 736 748 761 765 767 771 774 777 780 782 784 784 785 785 786 787 789 789 788 788 787 787 785 784 782 781 779 777 776 776 776 775
748 749 744 761 767 771 748 744 743 759 741 740 738 743 755 763 760 765 773 778 781 783 784 784 785 786 787 788 788 788 788 788 787 786 785 784 782 780 778 776 775 774 773 772
737 742 747 768 761 744 746 747 743 741 744 742 746 750 756 764 768 771 776 779 780 781 783 784 784 785 786 786 786 785 786 786 785 783 782 781 779 778 776 774 772 771 771 770
741 736 743 747 738 744 747 744 740 743 745 744 746 751 755 762 767 772 777 779 780 781 783 784 784 786 786 786 785 784 785 784 783 781 780 778 777 775 773 772 770 769 769 768
751 746 745 743 739 739 741 740 739 741 741 743 747 753 754 759 765 770 775 778 781 782 782 784 784 784 785 786 785 783 781 780 780 778 777 776 774 772 771 769 768 767 766 765
738 741 749 751 742 741 738 738 738 739 742 746 750 752 757 759 764 767 773 777 780 782 785 785 785 785 784 784 783 781 779 778 777 775 773 772 771 769 767 766 765 764 763 763
736 733 732 732 728 725 726 730 734 737 741 744 748 755 757 757 761 765 771 776 779 781 783 783 783 783 782 781 781 779 778 776 774 773 771 770 767 765 764 762 759 759 758 758
Wind_Speed
2 3 6 6 5 2 5 3 4 2 1 2 6 8 14 7 6 9 9 10 10 11 19 21 21 24 31 36 37 38 40 40 40 33 30 29 30 31 32 34 38 37 37 37
4 5 7 6 6 4 4 3 2 3 1 3 5 10 12 9 8 8 9 10 11 8 8 10 18 20 27 33 39 40 42 41 42 37 35 30 31 29 35 34 35 38 39 39
7 3 7 7 5 6 3 5 4 6 3 2 6 8 7 5 4 6 9 10 9 12 12 9 15 22 24 30 34 39 43 44 44 42 32 29 25 27 30 33 34 38 39 41
4 3 6 4 5 6 6 8 5 3 3 3 2 6 6 5 8 7 11 10 9 8 8 8 12 19 17 24 28 33 37 40 42 40 34 36 34 28 32 34 40 39 39 41
6 9 6 5 7 8 6 6 6 3 3 1 3 2 7 3 5 10 9 7 7 6 8 8 8 12 10 9 15 23 28 32 38 40 36 34 31 30 28 33 35 38 37 38
4 1 4 7 3 5 10 7 7 4 2 3 7 7 5 4 7 4 2 4 7 8 7 7 7 7 4 2 4 11 20 27 31 31 31 31 30 30 31 29 32 36 36 35
2 2 2 4 7 5 3 7 2 2 1 6 3 3 5 6 10 6 8 9 8 6 6 7 8 11 11 9 4 6 13 16 21 24 25 28 28 30 32 30 30 30 30 32
7 4 8 5 7 9 7 8 6 8 4 3 2 7 6 8 4 5 3 5 6 6 4 5 6 8 10 10 8 4 8 12 15 19 22 23 25 26 26 26 22 20 20 20
7 5 1 2 5 10 6 7 5 7 2 3 5 7 8 7 4 2 4 3 4 3 1 3 5 7 8 9 8 5 6 7 9 11 13 16 17 18 18 15 14 14 14 15
7 3 1 3 4 2 7 8 3 2 3 3 5 6 7 2 6 3 4 5 5 5 5 5 6 8 7 6 6 5 6 7 7 8 8 9 10 11 11 11 12 12 13 15
6 4 1 4 7 9 3 4 2 4 5 6 2 7 7 8 6 7 4 2 4 5 4 4 4 4 4 4 3 3 5 6 6 5 5 5 5 6 7 8 10 12 14 15
6 4 4 7 1 1 3 10 7 5 5 3 3 12 3 4 7 7 5 3 4 3 3 3 3 4 5 6 5 4 5 7 6 3 2 3 4 6 8 8 9 11 12 14
10 2 2 6 2 3 4 4 4 5 3 8 5 13 3 3 3 1 1 3 3 3 3 3 3 6 5 5 5 5 6 7 6 3 1 2 3 7 10 9 10 12 13 14
5 5 10 14 3 7 6 6 9 7 3 9 14 4 4 7 7 5 4 3 2 2 2 2 3 4 4 4 5 6 6 6 4 3 3 4 7 10 12 12 13 14 15 16
4 6 7 3 5 3 2 3 9 16 21 11 25 16 9 13 13 9 5 2 4 4 5 4 3 5 6 5 7 8 8 7 6 6 7 10 8 11 14 15 15 15 16 17
2 3 4 6 6 4 4 8 7 11 13 20 15 19 5 13 4 6 7 7 6 5 5 5 5 6 7 9 10 11 11 10 10 9 11 12 11 11 12 14 17 17 16 16
7 5 4 4 8 8 5 27 19 7 10 12 18 19 7 5 8 7 6 6 7 6 5 4 5 6 6 8 8 9 9 8 11 12 12 12 13 14 13 12 14 14 15 15
5 5 4 3 4 6 4 1 21 23 17 13 8 2 6 6 4 6 5 7 7 5 5 3 5 5 6 7 8 10 12 13 11 9 9 11 12 12 12 12 12 12 13 13
4 5 2 4 5 6 4 5 8 10 15 21 17 7 4 6 5 3 4 4 6 5 5 5 4 4 4 5 7 9 9 9 9 10 11 12 13 13 13 12 10 10 11 12
4 4 6 3 5 10 3 2 5 7 10 7 18 14 10 8 6 4 7 5 5 6 6 5 4 3 4 5 7 8 9 11 11 13 13 14 15 15 15 14 13 13 13 13
5 4 11 5 4 7 5 4 4 6 6 4 3 8 13 5 2 7 8 5 6 5 5 5 4 3 3 4 6 8 9 10 11 12 14 14 14 14 14 15 14 13 13 14
8 7 4 2 2 10 5 4 8 2 2 3 4 5 8 9 7 8 8 6 6 6 6 6 7 7 7 7 8 9 10 10 13 15 14 14 14 14 14 14 13 14 14 15
3 6 6 7 5 3 5 4 1 1 4 4 7 7 10 10 7 7 6 6 6 9 9 8 8 8 9 10 10 11 12 13 15 15 15 15 15 14 14 15 14 14 14 14
3 2 3 3 4 4 5 1 3 6 5 6 6 7 6 9 8 7 6 5 6 8 8 8 8 9 10 12 11 11 13 14 16 17 17 17 17 16 14 14 15 16 16 16
3 6 5 3 1 2 4 6 6 7 8 9 6 5 7 8 5 6 6 6 8 6 6 7 8 9 11 13 14 14 15 16 18 19 19 18 17 17 18 16 16 17 16 16
5 7 5 6 9 6 7 8 8 10 8 9 8 5 4 5 7 5 6 6 5 4 6 7 9 12 14 15 15 15 15 15 16 18 19 21 21 20 18 19 22 18 17 16
Wind_Direction
1 132 196 186 177 142 126 135 177 225 287 203 233 265 277 283 286 272 264 261 257 246 259 259 251 246 239 234 230 227 227 225 219 208 207 209 210 215 223 232 229 227 225 223
69 222 199 132 133 116 117 132 227 289 38 157 329 274 271 267 255 238 242 253 246 264 272 265 264 250 238 233 229 226 226 224 223 210 211 212 215 217 225 228 233 232 228 226
159 208 150 139 141 143 158 164 188 223 354 66 334 283 265 292 264 276 263 250 265 246 271 266 261 257 249 235 228 226 224 223 224 218 206 210 209 216 217 222 230 234 234 232
207 144 131 125 173 135 191 200 165 173 94 237 18 285 293 273 299 300 281 266 267 292 263 256 269 271 256 246 234 230 227 222 223 216 205 208 210 212 221 221 229 233 234 232
230 160 143 173 188 168 217 134 150 105 117 51 321 331 270 347 292 268 266 309 316 321 301 303 301 300 284 261 240 234 227 222 221 215 207 208 215 222 230 224 229 233 229 231
158 186 160 189 98 146 147 79 53 61 93 287 199 176 257 211 218 276 268 349 336 329 356 0 3 15 29 9 223 218 214 217 218 210 207 210 216 222 226 228 230 233 232 229
105 198 185 139 88 40 92 97 18 345 3 232 338 166 244 241 240 228 285 308 317 337 17 19 19 25 34 40 75 166 189 192 202 203 204 211 216 224 231 234 231 233 233 232
160 227 166 183 167 163 185 159 164 197 199 242 58 233 254 236 324 276 296 313 322 345 6 29 23 28 44 46 54 106 168 173 191 202 209 216 222 231 234 236 235 235 237 241
165 240 63 167 146 146 207 212 169 105 36 64 215 283 291 264 225 54 2 359 352 274 160 36 39 42 45 56 59 88 133 153 177 195 204 212 218 224 230 231 237 247 255 259
198 122 343 151 110 25 162 155 78 4 139 245 264 274 226 152 198 123 22 15 356 16 47 41 28 23 37 45 64 83 111 135 151 167 183 196 210 224 235 246 253 260 263 267
146 116 311 118 211 163 135 182 137 136 168 187 231 247 208 212 155 145 132 83 59 42 32 32 24 28 45 59 81 94 107 114 119 136 158 175 196 223 235 250 264 271 271 270
186 136 160 199 278 295 310 200 161 163 224 246 167 257 7 183 155 142 137 75 60 55 50 48 72 66 75 86 88 95 99 100 96 99 132 182 207 239 248 250 263 271 276 275
162 196 67 343 350 3 216 191 153 110 91 204 151 253 360 126 165 199 154 349 357 358 41 17 56 95 90 91 99 93 88 83 81 68 22 325 296 279 279 283 283 279 277 275
123 131 199 217 212 145 196 200 193 171 171 223 233 219 210 216 208 222 249 249 308 82 40 34 50 35 87 119 102 82 67 59 43 13 329 316 310 300 295 293 289 285 279 270
122 196 185 168 140 101 145 167 192 202 222 196 250 234 194 202 203 208 225 168 132 110 72 63 58 35 36 77 92 93 75 53 23 8 340 326 313 304 299 298 293 288 283 279
131 227 194 239 206 190 277 246 208 243 239 242 255 254 174 207 138 171 205 172 161 139 120 91 61 52 45 36 35 40 39 27 9 3 358 338 331 319 314 306 297 288 281 278
156 152 148 226 170 165 240 228 228 224 215 225 233 248 168 177 196 207 195 165 155 137 107 88 82 61 35 24 32 36 38 35 27 16 5 346 346 341 327 313 300 298 294 288
151 156 170 127 132 208 232 93 210 217 229 214 235 128 188 205 127 127 136 138 120 112 100 81 77 76 54 33 27 26 30 28 23 13 3 0 351 340 334 322 318 314 310 299
181 154 180 173 208 309 252 188 152 175 247 228 224 168 139 132 88 57 140 142 146 148 149 140 115 91 55 31 17 19 22 17 12 6 1 356 348 344 338 332 320 309 300 295
199 178 197 148 183 208 266 189 142 104 273 213 194 180 162 157 166 200 169 142 130 144 157 143 124 77 40 14 358 357 360 355 353 349 346 343 339 336 334 329 320 313 303 297
181 190 214 189 214 283 238 173 164 126 244 38 179 162 156 178 264 134 129 113 136 145 130 127 118 81 23 350 340 345 347 351 342 337 335 333 330 328 326 322 318 311 304 300
169 164 181 120 179 252 174 67 171 216 20 119 106 128 117 125 106 112 124 128 119 106 87 67 68 53 40 23 8 6 4 346 333 331 334 333 330 327 323 318 315 311 305 296
198 178 169 184 201 207 227 195 333 149 148 165 132 136 133 128 125 136 129 122 112 105 86 56 49 52 47 25 11 1 348 337 334 332 333 332 328 325 321 317 314 306 297 292
263 182 152 105 212 203 219 176 209 186 157 130 116 124 123 127 137 124 120 111 108 89 65 39 37 32 28 17 14 360 344 337 333 330 332 330 324 321 318 311 305 298 293 288
183 144 160 280 262 98 234 219 187 142 124 118 113 125 138 130 129 129 124 114 102 86 43 36 26 9 358 351 355 345 338 332 329 327 326 327 326 319 314 307 300 288 283 278
188 176 171 216 187 184 205 184 162 150 153 146 132 116 71 112 125 107 104 100 89 47 17 5 356 349 344 340 341 335 333 330 328 324 324 322 320 318 313 305 301 292 286 275